Location: Hains Lake
(37.8540°N, 99.8578°W)
Time: 05:00:52
(UTC+00:00)

Transit 2A - Pass Details

Date: 20 April 2021
Orbit: 602 x 957 km, 66.7° (Epoch: 13 May)

Event Time Altitude Azimuth Distance (km) Brightness Sun altitude
Rises 14:28:35 0° 241° (WSW) 3,086 8.7 28.9°
Reaches altitude 10° 14:31:29 10° 257° (WSW) 2,110 7.9 29.4°
Maximum altitude 14:35:07 22° 307° (NW) 1,432 7.2 30.1°
Drops below altitude 10° 14:38:35 10° 358° (N) 2,001 8.2 30.8°
Sets 14:41:15 0° 15° (NNE) 2,881 9.0 31.3°
